Location: Fort Worth, Tx
(32.7431°N, 97.3695°W)
Time: 10:53:59
(UTC-04:00)

A-11 Canister half - Pass Details

Date: 15 August 2024
Orbit: 1524 x 1684 km, 47.3° (Epoch: 13 September)

Event Time Altitude Azimuth Distance (km) Brightness Sun altitude
Rises 06:19:55 0° 307° (NW) 4,937 11.4 -18.8°
Reaches altitude 10° 06:23:09 10° 310° (NW) 3,940 10.9 -18.2°
Maximum altitude 06:33:15 69° 33° (NNE) 1,751 9.4 -16.3°
Drops below altitude 10° 06:43:02 10° 116° (ESE) 3,829 11.6 -14.5°
Sets 06:46:07 0° 118° (ESE) 4,791 12.1 -13.9°
